Location: Garbet
(42.8837°N, 1.2115°E)
Time: 04:38:12
(UTC+00:00)

Cosmos 1953 Rocket - Pass Details

Date: 14 March 2026
Orbit: 599 x 626 km, 82.5° (Epoch: 15 April)

Event Time Altitude Azimuth Distance (km) Brightness Sun altitude
Rises 05:04:25 0° 7° (N) 2,883 7.2 -12.7°
Reaches altitude 10° 05:07:14 10° 26° (NNE) 1,979 6.6 -12.2°
Maximum altitude 05:10:20 19° 71° (ENE) 1,494 6.7 -11.6°
Drops below altitude 10° 05:13:26 10° 116° (ESE) 1,980 7.1 -11.0°
Sets 05:16:14 0° 135° (SE) 2,885 7.6 -10.5°
